Flag for Germany Weather past 2 weeks in Bornheim (Rheinland), North Rhine-Westphalia, Germany

Now
73 °F

Overcast.


Feels Like: 74 °F
Forecast: 62 / 81 °F
Wind: 3 mph from North

Location: Bonn-Hangelar

Current Time: Jul 22, 2014 at 1:42:11 PM

Latest Report: Jul 22, 2014 at 1:00 PM


Visibility: 8 mi

Pressure: 30.05 "Hg

Humidity: 76%

Dew point: 65 °F

Location of Bornheim (Rheinland)Location

Historic Weather in Bornheim (Rheinland) — Graph

°F

Bornheim (Rheinland) temperature yesterday

Maximum temperature yesterday: 67 °F (at 12:00 AM)
Minimum temperature yesterday: 64 °F (at 3:00 AM)
Average temperature yesterday: 65 °F

Past Weeks' High & Low Weather Summary

 TemperatureHumidityPressure
High93 °F (Jul 19, 5:00 PM)100% (Jul 10, 3:00 AM)30.20 "Hg (Jul 10, 3:00 AM)
Low54 °F (Jul 9, 2:00 AM)23% (Jul 19, 3:00 PM)29.71 "Hg (Jul 9, 6:00 PM)
Average66 °F79%29.95 "Hg
* Reported Jul 7 12:00 Noon — Jul 22 12:00 Noon, Bornheim (Rheinland), Weather by CustomWeather, © 2014

Note: Actual official high and low records may vary slightly from our data, if they occured in-between our weather recording intervals... More about our weather records

Advertising

Bornheim (Rheinland) weather history for previous 24 hours

 ConditionsComfort  
Time TempWeatherWind HumidityBarometerVisibility
12:00 PM
Jul 22
71 °FFog.3 mph91%30.04 "Hg4 mi
11:00 AM67 °FFog.2 mph99%30.05 "Hg1 mi
10:00 AM66 °FFog.3 mph100%30.04 "Hg0 mi
9:00 AM65 °FFog.3 mph99%30.03 "Hg0 mi
8:00 AM65 °FFog.3 mph99%30.01 "Hg0 mi
7:00 AM65 °FFog.2 mph99%30.01 "Hg0 mi
6:00 AM65 °FFog.3 mph99%30.00 "Hg0 mi
5:00 AM65 °FLow clouds.3 mph99%30.00 "Hg0 mi
4:00 AM64 °FDrizzle. Low clouds.3 mph99%29.99 "Hg0 mi
3:00 AM64 °FDrizzle. Low clouds.3 mph99%30.00 "Hg0 mi
2:00 AM64 °FDrizzle. Low clouds.3 mph99%30.00 "Hg0 mi
1:00 AM64 °FLow clouds.5 mph99%30.00 "Hg1 mi
12:00 AM64 °FDrizzle. Low clouds.3 mph98%29.99 "Hg1 mi
11:00 PM
Jul 21
64 °FLow clouds.5 mph98%29.99 "Hg1 mi
10:00 PM64 °FRain. Low clouds.6 mph98%29.98 "Hg1 mi
9:00 PM64 °FRain. Low clouds.6 mph98%29.97 "Hg2 mi
8:00 PM65 °FLight rain. Low clouds.6 mph97%29.96 "Hg2 mi
7:00 PM65 °FLight rain. Low clouds.6 mph97%29.96 "Hg1 mi
6:00 PM65 °FLow clouds.8 mph96%29.95 "Hg4 mi
5:00 PM65 °FRain. Low clouds.5 mph97%29.94 "Hg2 mi
4:00 PM65 °FLight rain. Low clouds.7 mph96%29.93 "Hg2 mi
3:00 PM65 °FLight rain. Low clouds.5 mph96%29.93 "Hg2 mi
2:00 PM65 °FRain. Low clouds.5 mph97%29.93 "Hg2 mi
1:00 PM64 °FLight rain. Low clouds.5 mph98%29.93 "Hg1 mi
Weather by CustomWeather, © 2014

See weather overviewHow to use our weather pages